This is the latest recevied weather packets stored in our database for station/object N5CSU. If no packets are shown the sender has not sent any weather packets the latest 10 day(s).
| Time | Temp. | Humidity | Pressure | Rain* | Wind** | Luminosity | Snow |
|---|---|---|---|---|---|---|---|
| 1788297967 | 36.11° C | 44% | 1013.9 hPa | 0 mm | - | 21 W/m² | - |
| 1788297678 | 36.11° C | 44% | 1014 hPa | 0 mm | - | 22 W/m² | - |
| 1788297358 | 36.11° C | 44% | 1014 hPa | 0 mm | - | 21 W/m² | - |
| 1788297055 | 36.11° C | 44% | 1013.9 hPa | 0 mm | - | 22 W/m² | - |
| 1788296750 | 36.11° C | 44% | 1014.2 hPa | 0 mm | - | 17 W/m² | - |
| 1788296446 | 36.67° C | 43% | 1014.1 hPa | 0 mm | - | 19 W/m² | - |
| 1788296142 | 36.67° C | 42% | 1014.1 hPa | 0 mm | - | 18 W/m² | - |
| 1788295841 | 36.11° C | 43% | 1014 hPa | 0 mm | - | 62 W/m² | - |
| 1788295538 | 36.67° C | 43% | 1014.2 hPa | 0 mm | - | 22 W/m² | - |
| 1788295232 | 36.67° C | 43% | 1014.1 hPa | 0 mm | - | 21 W/m² | - |
| 1788294927 | 36.67° C | 42% | 1014.2 hPa | 0 mm | - | 27 W/m² | - |
| 1788294631 | 36.67° C | 43% | 1014.2 hPa | 0 mm | - | 25 W/m² | - |
| 1788294316 | 37.22° C | 43% | 1014.3 hPa | 0 mm | - | 21 W/m² | - |
| 1788294013 | 36.67° C | 43% | 1014.3 hPa | 0 mm | - | 22 W/m² | - |
| 1788293708 | 36.11° C | 45% | 1014.4 hPa | 0 mm | - | 24 W/m² | - |
| 1788293402 | 36.11° C | 44% | 1014.4 hPa | 0 mm | - | 21 W/m² | - |
| 1788293096 | 36.67° C | 43% | 1014.6 hPa | 0 mm | - | 18 W/m² | - |
| 1788292796 | 36.11° C | 44% | 1014.6 hPa | 0 mm | - | 28 W/m² | - |
| 1788292494 | 37.22° C | 44% | 1014.6 hPa | 0 mm | - | 15 W/m² | - |
| 1788292189 | 37.22° C | 42% | 1014.7 hPa | 0 mm | - | 17 W/m² | - |
| 1788291884 | 37.22° C | 43% | 1014.7 hPa | 0 mm | - | 29 W/m² | - |
| 1788291580 | 37.78° C | 42% | 1014.7 hPa | 0 mm | - | 35 W/m² | - |
| 1788291279 | 37.22° C | 41% | 1014.8 hPa | 0 mm | - | 58 W/m² | - |
| 1788290978 | 37.22° C | 43% | 1014.9 hPa | 0 mm | - | 50 W/m² | - |
| 1788290675 | 37.22° C | 42% | 1015.1 hPa | 0 mm | - | 282 W/m² | - |
* Rain latest hour (hover to see other rain measurements)
** Current wind speed in m/s (hover to see current wind gust speed)